Tracking 29892 objects as of 21-Nov-2024
HD Live streaming from Space Station
objects crossing your sky now

STARLINK-1938

Track STARLINK-1938 now!
10-day predictions
STARLINK-1938 is classified as:


NORAD ID: 47551
Int'l Code: 2021-009D
Perigee: 484.9 km
Apogee: 486.9 km
Inclination: 53.1 °
Period: 94.2 minutes
Semi major axis: 6856 km
RCS: Unknown
Launch date: February 4, 2021
Source: United States (US)
Launch site: AIR FORCE EASTERN TEST RANGE (AFETR)
Your satellite tracking list
Your tracking list is empty




NASA's NSSDC Master Catalog

Two Line Element Set (TLE):
1 47551U 21009D   24325.91668981  .00919924  00000-0  29856-1 0  9993
2 47551  53.0508 347.2049 0001460  79.8542 289.2721 15.29008345  5799
Source of the keplerian elements: AFSPC